Date String (YYYY-MM-DD hh:mm:ss) UTC,Instrument flags,absolute air pressure of the measurement (hPa),sample flow rate (lpm),inlet stack bypass flow (lpm),air temperature of the measurement (°C),ambient temperature measured by the external sensor (°C),aerosol sample conditioner tube jacket temperature (°C),OPC LED temperature (°C),internal box temperature (°C),relative humidity of the measurement (%),span deviation,mass concentration of particles derived from Lorenz-Mie calculation of OPC scattering (μg/m³),mass concentration of particles derived from Lorenz-Mie calculation of OPC scattering (μg/m³),mass concentration of particles derived from Lorenz-Mie calculation of OPC scattering (μg/m³)
DateTimeUTC,F1_M11,P_M11,Q1_M11,Q2_M11,T1_M11,T2_M11,T3_M11,T4_M11,T5_M11,U1_M11,ZSPAN_M11,X0_M11,X2_M11,X1_M11
2023-12-07 20:00:00,SystemResetWarning,0817.7,5.00,000.00,024.3,023.5,000.0,032.5,025.7,9.9,0000.0,0001.60,0000.85,0000.64
2023-12-07 20:01:00,SystemResetWarning,0817.6,5.00,000.00,024.3,023.5,000.0,032.5,025.7,10.1,0000.0,0001.69,0000.87,0000.65
2023-12-07 20:02:00,SystemResetWarning,0817.6,4.99,000.00,024.3,023.5,000.0,032.5,025.7,10.2,0000.0,0001.72,0000.87,0000.65
2023-12-07 20:03:00,SystemResetWarning,0817.5,4.99,000.00,024.3,023.5,000.0,032.5,025.7,9.9,0000.0,0002.28,0000.87,0000.64
2023-12-07 20:04:00,SystemResetWarning,0817.5,5.00,000.00,024.3,023.5,000.0,032.5,025.7,10.1,0000.0,0002.43,0000.90,0000.64
2023-12-07 20:05:00,SystemResetWarning,0817.6,5.01,000.00,024.4,023.5,000.0,032.6,025.7,10.0,0000.0,0002.58,0000.93,0000.65
2023-12-07 20:06:00,SystemResetWarning,0817.5,5.01,000.00,024.4,023.6,000.0,032.6,025.7,10.1,0000.0,0003.09,0000.94,0000.66
2023-12-07 20:07:00,SystemResetWarning,0817.5,5.01,000.00,024.4,023.6,000.0,032.6,025.8,10.3,0000.0,0003.22,0000.94,0000.66
2023-12-07 20:08:00,SystemResetWarning,0817.6,5.00,000.00,024.4,023.6,000.0,032.6,025.8,10.2,0000.0,0003.60,0000.97,0000.66
2023-12-07 20:09:00,SystemResetWarning,0817.5,4.98,000.00,024.4,023.6,000.0,032.6,025.8,10.3,0000.0,0003.86,0000.99,0000.66
2023-12-07 20:10:00,SystemResetWarning,0817.5,5.01,000.00,024.4,023.6,000.0,032.6,025.9,10.2,0000.0,0003.94,0001.00,0000.66
2023-12-07 20:11:00,SystemResetWarning,0817.6,5.00,000.00,024.4,023.7,000.0,032.6,025.9,10.4,0000.0,0003.78,0001.01,0000.67
2023-12-07 20:12:00,SystemResetWarning,0817.6,5.00,000.00,024.4,023.7,000.0,032.6,025.9,10.6,0000.0,0003.58,0000.98,0000.67
2023-12-07 20:13:00,SystemResetWarning,0817.5,5.01,000.00,024.5,023.7,000.0,032.7,025.9,10.8,0000.0,0003.52,0000.97,0000.67
2023-12-07 20:14:00,SystemResetWarning,0817.4,5.01,000.00,024.5,023.7,000.0,032.7,025.9,10.7,0000.0,0002.90,0000.96,0000.67
2023-12-07 20:15:00,SystemResetWarning,0817.3,5.00,000.00,024.5,023.7,000.0,032.7,025.9,10.5,0000.0,0002.96,0000.96,0000.67
2023-12-07 20:16:00,SystemResetWarning,0817.2,5.00,000.00,024.5,023.7,000.0,032.7,025.9,10.6,0000.0,0002.85,0000.95,0000.68
2023-12-07 20:17:00,SystemResetWarning,0817.4,5.00,000.00,024.5,023.7,000.0,032.7,025.9,10.6,0000.0,0002.97,0001.00,0000.69
2023-12-07 20:18:00,SystemResetWarning,0817.4,5.00,000.00,024.5,023.7,000.0,032.7,025.9,10.5,0000.0,0003.00,0001.01,0000.68
2023-12-07 20:19:00,SystemResetWarning,0817.4,5.00,000.00,024.5,023.7,000.0,032.7,025.9,10.6,0000.0,0002.71,0000.98,0000.68
2023-12-07 20:20:00,SystemResetWarning,0817.4,5.00,000.00,024.5,023.7,000.0,032.7,026.0,10.8,0000.0,0002.35,0000.95,0000.67
2023-12-07 20:21:00,SystemResetWarning,0817.3,5.00,000.00,024.6,023.7,000.0,032.8,026.0,10.6,0000.0,0002.28,0000.93,0000.67
2023-12-07 20:22:00,SystemResetWarning,0817.4,5.00,000.00,024.6,023.8,000.0,032.8,026.0,10.2,0000.0,0002.16,0000.93,0000.67
2023-12-07 20:23:00,SystemResetWarning,0817.5,5.00,000.00,024.6,023.8,000.0,032.8,026.0,10.0,0000.0,0002.13,0000.92,0000.67
2023-12-07 20:24:00,SystemResetWarning,0817.6,5.00,000.00,024.6,023.8,000.0,032.8,026.0,10.1,0000.0,0002.17,0000.92,0000.67
2023-12-07 20:25:00,SystemResetWarning,0817.6,5.00,000.00,024.6,023.8,000.0,032.8,026.0,10.3,0000.0,0002.20,0000.92,0000.67
2023-12-07 20:26:00,SystemResetWarning,0817.6,5.00,000.00,024.6,023.8,000.0,032.8,026.1,10.3,0000.0,0002.13,0000.90,0000.67
2023-12-07 20:27:00,SystemResetWarning,0817.5,5.00,000.00,024.6,023.8,000.0,032.8,026.1,10.3,0000.0,0002.59,0000.93,0000.66
2023-12-07 20:28:00,SystemResetWarning,0817.6,5.00,000.00,024.6,023.8,000.0,032.8,026.0,10.3,0000.0,0002.08,0000.90,0000.66
2023-12-07 20:29:00,SystemResetWarning,0817.5,5.00,000.00,024.6,023.8,000.0,032.8,026.1,10.5,0000.0,0001.94,0000.93,0000.67
2023-12-07 20:30:00,SystemResetWarning,0817.6,5.00,000.00,024.7,023.8,000.0,032.9,026.1,10.4,0000.0,0002.03,0000.96,0000.68
2023-12-07 20:31:00,SystemResetWarning,0817.6,5.00,000.00,024.7,023.9,000.0,032.9,026.1,10.4,0000.0,0002.14,0001.01,0000.69
2023-12-07 20:32:00,SystemResetWarning,0817.7,5.00,000.00,024.7,023.9,000.0,032.9,026.1,10.2,0000.0,0002.18,0001.03,0000.69
2023-12-07 20:33:00,SystemResetWarning,0817.7,5.00,000.00,024.7,023.9,000.0,032.9,026.1,10.0,0000.0,0002.17,0001.03,0000.70
2023-12-07 20:34:00,SystemResetWarning,0817.6,5.00,000.00,024.7,023.9,000.0,032.9,026.1,10.3,0000.0,0002.14,0001.02,0000.69
2023-12-07 20:35:00,SystemResetWarning,0817.5,5.00,000.00,024.7,023.9,000.0,032.9,026.1,10.3,0000.0,0002.06,0000.99,0000.69
2023-12-07 20:36:00,SystemResetWarning,0817.5,5.00,000.00,024.7,023.9,000.0,032.9,026.1,10.3,0000.0,0002.04,0000.99,0000.69
2023-12-07 20:37:00,SystemResetWarning,0817.6,5.00,000.00,024.7,023.9,000.0,032.9,026.2,10.1,0000.0,0002.06,0001.00,0000.69
2023-12-07 20:38:00,SystemResetWarning,0817.6,5.00,000.00,024.7,023.9,000.0,033.0,026.2,9.9,0000.0,0002.95,0000.96,0000.68
2023-12-07 20:39:00,SystemResetWarning,0817.5,5.00,000.00,024.7,023.9,000.0,033.0,026.2,10.0,0000.0,0002.85,0000.94,0000.67
2023-12-07 20:40:00,SystemResetWarning,0817.6,5.00,000.00,024.8,023.9,000.0,033.0,026.2,10.3,0000.0,0002.91,0000.93,0000.67
2023-12-07 20:41:00,SystemResetWarning,0817.7,5.00,000.00,024.8,023.9,000.0,033.0,026.2,10.4,0000.0,0002.85,0000.90,0000.66
2023-12-07 20:42:00,SystemResetWarning,0817.6,5.00,000.00,024.8,023.9,000.0,033.0,026.2,10.4,0000.0,0002.85,0000.90,0000.66
2023-12-07 20:43:00,SystemResetWarning,0817.6,5.00,000.00,024.8,024.0,000.0,033.0,026.2,10.7,0000.0,0002.82,0000.89,0000.66
2023-12-07 20:44:00,SystemResetWarning,0817.6,4.99,000.00,024.8,024.0,000.0,033.0,026.2,10.6,0000.0,0003.35,0000.87,0000.66
2023-12-07 20:45:00,SystemResetWarning,0817.7,5.00,000.00,024.8,024.0,000.0,033.0,026.3,9.9,0000.0,0004.09,0000.89,0000.66
2023-12-07 20:46:00,SystemResetWarning,0817.7,5.00,000.00,024.8,024.0,000.0,033.0,026.2,10.4,0000.0,0004.28,0000.93,0000.66
2023-12-07 20:47:00,SystemResetWarning,0817.6,5.00,000.00,024.8,024.0,000.0,033.0,026.2,10.9,0000.0,0004.95,0000.95,0000.66
2023-12-07 20:48:00,SystemResetWarning,0817.7,5.00,000.00,024.9,024.0,000.0,033.1,026.2,10.7,0000.0,0005.98,0000.95,0000.67
2023-12-07 20:49:00,SystemResetWarning,0817.6,5.00,000.00,024.9,024.0,000.0,033.1,026.3,10.0,0000.0,0004.95,0000.98,0000.67
2023-12-07 20:50:00,SystemResetWarning,0817.6,5.00,000.00,024.9,024.0,000.0,033.1,026.2,10.0,0000.0,0004.82,0001.01,0000.68
2023-12-07 20:51:00,SystemResetWarning,0817.6,5.00,000.00,024.9,024.0,000.0,033.1,026.3,10.2,0000.0,0004.87,0001.03,0000.68
2023-12-07 20:52:00,SystemResetWarning,0817.6,5.00,000.00,024.9,024.0,000.0,033.1,026.3,10.3,0000.0,0004.88,0001.04,0000.67
2023-12-07 20:53:00,SystemResetWarning,0817.7,4.99,000.00,024.9,024.0,000.0,033.1,026.3,10.3,0000.0,0004.94,0001.06,0000.68
2023-12-07 20:54:00,SystemResetWarning,0817.7,5.00,000.00,024.9,024.1,000.0,033.1,026.3,10.5,0000.0,0004.97,0001.06,0000.69
2023-12-07 20:55:00,SystemResetWarning,0817.8,5.00,000.00,024.9,024.1,000.0,033.1,026.3,10.4,0000.0,0005.01,0001.10,0000.71
2023-12-07 20:56:00,SystemResetWarning,0817.9,5.00,000.00,024.9,024.1,000.0,033.1,026.3,10.2,0000.0,0004.24,0001.10,0000.72
2023-12-07 20:57:00,SystemResetWarning,0817.9,5.00,000.00,024.9,024.1,000.0,033.1,026.3,10.3,0000.0,0004.26,0001.13,0000.73
2023-12-07 20:58:00,SystemResetWarning,0817.9,5.01,000.00,024.9,024.1,000.0,033.2,026.3,10.3,0000.0,0004.02,0001.14,0000.73
2023-12-07 20:59:00,SystemResetWarning,0818.0,5.00,000.00,024.9,024.1,000.0,033.2,026.3,10.4,0000.0,0002.81,0001.17,0000.73
